Location: Jackson Park
(37.2862°N, 79.9123°W)
Time: 04:58:00
(UTC+00:00)

S-56A Canister/Altair - Visible Passes

Search period start: 10 May 2026 00:00
Search period end: 20 May 2026 00:00
Orbit: 633 x 2484 km, 38.9° (Epoch: 9 May)

Date Brightness Start Highest point End Pass type
(mag) Time Alt. Az. Time Alt. Az. Time Alt. Az.
10 May 8.9 01:14:40 10° S 01:16:08 13° SSE 01:16:08 13° SSE visible
10 May 9.9 05:27:51 20° E 05:27:51 20° E 05:30:07 10° E visible
10 May 8.2 07:25:08 49° W 07:27:09 77° SSW 07:36:31 10° ESE visible
10 May 9.4 09:24:38 10° W 09:31:34 36° SSW 09:41:25 10° SSE visible
11 May 8.9 02:40:23 10° SW 02:41:46 19° SW 02:41:46 19° SW visible
11 May 8.1 06:52:43 75° SE 06:52:43 75° SE 07:00:44 10° ESE visible
11 May 9.1 08:50:01 11° W 08:56:22 39° SSW 09:05:53 10° SE visible
12 May 7.4 02:05:46 10° SW 02:09:55 42° SSE 02:09:55 42° SSE visible
12 May 9.2 06:20:34 33° ESE 06:20:34 33° ESE 06:25:01 10° ESE visible
12 May 8.8 08:17:54 27° WSW 08:21:15 42° SSW 08:30:19 10° SE visible
13 May 7.7 01:31:08 10° SW 01:35:17 35° SSE 01:37:53 19° E visible
13 May 9.3 03:34:01 10° W 03:35:12 18° W 03:35:12 18° W visible
13 May 10.4 05:48:41 13° E 05:48:41 13° E 05:49:23 10° ESE visible
13 May 8.5 07:46:02 46° SSW 07:46:10 46° SSW 07:54:46 10° SE visible
14 May 8.0 00:56:29 10° SSW 01:00:34 29° SSE 01:04:26 10° E visible
14 May 7.4 02:59:16 10° WSW 03:02:55 61° W 03:02:55 61° W visible
14 May 9.3 07:14:25 31° SSE 07:14:25 31° SSE 07:19:14 10° SE visible
14 May 9.8 09:11:47 14° WSW 09:15:19 18° SW 09:21:22 10° S visible
15 May 7.0 02:24:28 10° WSW 02:28:56 85° SSE 02:30:26 42° E visible
15 May 10.4 06:42:57 13° SE 06:42:57 13° SE 06:43:43 10° SE visible
15 May 9.6 08:40:20 20° SSW 08:40:20 20° SSW 08:46:24 10° S visible
16 May 7.0 01:49:36 10° WSW 01:54:12 76° SSE 01:57:46 16° E visible
16 May 9.0 03:53:15 10° W 03:55:02 24° WNW 03:55:02 24° WNW visible
16 May 10.1 08:08:58 16° S 08:08:58 16° S 08:11:21 10° SSE visible
17 May 7.1 01:14:41 10° WSW 01:19:29 66° SSE 01:23:53 10° E visible
17 May 7.6 03:18:29 10° W 03:22:12 59° WNW 03:22:12 59° WNW visible
18 May 7.2 02:43:40 10° W 02:48:08 72° N 02:49:16 49° ENE visible
19 May 7.2 02:08:45 10° W 02:13:21 74° N 02:16:14 22° ENE visible
19 May 9.4 04:12:25 10° WNW 04:13:29 18° WNW 04:13:29 18° WNW visible
